Location: Big Meadows
(38.5260°N, 78.4400°W)
Time: 06:34:46
(UTC-04:00)

Amateur Radio Satellites - All Passes

Search period start: 28 June 2017 06:04
Search period end: 29 June 2017 06:04
Location: Big Meadows, 38.5260°N, 78.4400°W

Satellite Date Start Highest point End Downlink Frequencies (MHz)
Time Altitude Azimuth
AO-7 28 Jun 06:05:48 06:13:31 43° 298° (WNW) 06:21:12 .
STARS 28 Jun 06:09:51 06:14:08 55° 259° (W) 06:18:28 437.465
CUTE-I 28 Jun 06:18:23 06:21:05 14° 91° (E) 06:23:48 437.470
XW-2C 28 Jun 06:21:21 06:23:00 12° 92° (E) 06:24:38 145.795 - 145.815
KAITUO 1B 28 Jun 06:28:44 06:29:57 11° 92° (E) 06:31:09 145.475/437.950
ITAMSAT 1 28 Jun 06:35:38 06:36:46 11° 301° (WNW) 06:37:54 435.822/435.867
BEESAT 3 28 Jun 06:35:41 06:39:14 31° 246° (WSW) 06:42:44 437.485
DOVE 4 28 Jun 06:38:52 06:43:50 60° 101° (E) 06:48:59 437.250
AO-85 28 Jun 06:40:49 06:43:48 19° 248° (WSW) 06:46:55 145.980
Tancredo 1 28 Jun 06:50:29 06:53:06 27° 134° (SE) 06:55:44 437.200
NUDT-PHONESAT 28 Jun 06:58:34 07:01:45 27° 96° (E) 07:04:54 437.300
STRAND 1 28 Jun 07:05:55 07:10:24 31° 68° (ENE) 07:14:55 437.568
RS-15 28 Jun 07:08:46 07:20:37 65° 247° (WSW) 07:31:49 29.354- 29.394
HO-68 28 Jun 07:09:04 07:12:44 14° 90° (E) 07:16:22 435.675
XW-2F 28 Jun 07:22:48 07:26:33 78° 100° (E) 07:30:16 145.980 - 146.000
XW-2D 28 Jun 07:28:53 07:32:39 79° 283° (WNW) 07:36:23 145.860 - 145.880
O/OREOS (USA 219) 28 Jun 07:33:34 07:38:03 78° 68° (ENE) 07:42:31 437.305
XW-2B 28 Jun 07:38:00 07:41:44 62° 284° (WNW) 07:45:25 145.730 - 145.750
LilacSat-2 28 Jun 07:40:50 07:44:32 53° 285° (WNW) 07:48:11 437.200
BEESAT 2 28 Jun 07:41:54 07:44:42 18° 250° (WSW) 07:47:28 435.950
ISS 28 Jun 07:43:31 07:46:41 49° 137° (SE) 07:49:52 437.550
XW-2C 28 Jun 07:53:51 07:57:21 37° 287° (WNW) 08:00:48 145.795 - 145.815
YUBILEINY 28 Jun 07:55:17 08:01:19 20° 65° (ENE) 08:07:18 435.215
CUTE-I 28 Jun 07:56:14 08:01:35 68° 286° (WNW) 08:06:54 437.470
CUTE 1.7 + AOD 2 28 Jun 07:56:40 08:00:15 27° 96° (E) 08:03:50 437.475
KAITUO 1B 28 Jun 08:00:40 08:04:08 40° 287° (WNW) 08:07:36 145.475/437.950
AAUSAT CUBESAT 2 28 Jun 08:17:13 08:19:01 13° 92° (E) 08:20:49 437.432
DOVE 4 28 Jun 08:18:02 08:21:02 16° 295° (WNW) 08:24:06 437.250
Tancredo 1 28 Jun 08:26:01 08:28:38 26° 330° (NNW) 08:31:16 437.200
NUDT-PHONESAT 28 Jun 08:32:59 08:35:25 17° 292° (WNW) 08:37:51 437.300
XW-2A 28 Jun 08:35:41 08:39:03 57° 101° (E) 08:42:21 145.665 - 145.685
CUBEBUG 2 28 Jun 08:37:54 08:42:21 42° 98° (E) 08:46:40 437.445
STRAND 1 28 Jun 08:45:06 08:49:31 29° 264° (W) 08:53:58 437.568
HO-68 28 Jun 08:54:02 09:01:17 89° 277° (W) 09:08:26 435.675
ZACube-1 28 Jun 08:54:21 08:57:35 20° 93° (E) 09:00:44 437.345
UWE-3 28 Jun 09:05:20 09:09:45 49° 99° (E) 09:14:02 435.000/436.395/437.385
SEEDS 28 Jun 09:08:42 09:12:50 66° 284° (WNW) 09:16:56 437.485
UNISAT 6 28 Jun 09:10:58 09:13:18 14° 64° (ENE) 09:15:39 437.425
FO-29 28 Jun 09:20:23 09:25:52 33° 64° (ENE) 09:31:57 435.910
ISS 28 Jun 09:20:45 09:23:20 21° 334° (NNW) 09:25:56 437.550
RS-15 28 Jun 09:27:19 09:30:22 11° 267° (W) 09:33:24 29.354- 29.394
CUTE 1.7 + AOD 2 28 Jun 09:32:39 09:35:56 22° 291° (WNW) 09:39:12 437.475
YUBILEINY 28 Jun 09:50:20 09:59:12 83° 265° (W) 10:07:58 435.215
AAUSAT CUBESAT 2 28 Jun 09:50:46 09:54:41 46° 286° (WNW) 09:58:38 437.432
AO-73 28 Jun 09:52:40 09:57:05 84° 100° (E) 10:01:23 145.935
M-CUBED/EXP-1 PRIME 28 Jun 09:59:42 10:02:58 70° 253° (WSW) 10:06:14 437.505
TIGRISAT 28 Jun 10:02:04 10:06:25 43° 72° (ENE) 10:10:51 435.000
CUBEBUG 2 28 Jun 10:15:24 10:18:35 18° 294° (WNW) 10:21:43 437.445
Oscar 11 28 Jun 10:16:11 10:20:28 69° 284° (WNW) 10:24:43 .
ZACube-1 28 Jun 10:29:57 10:33:55 33° 289° (WNW) 10:37:47 437.345
PRISM 28 Jun 10:35:20 10:39:22 69° 259° (WSW) 10:43:25 437.425
UWE-3 28 Jun 10:43:07 10:45:43 15° 295° (WNW) 10:48:18 435.000/436.395/437.385
HO-68 28 Jun 10:43:46 10:47:59 17° 304° (NW) 10:52:13 435.675
UNISAT 6 28 Jun 10:44:54 10:49:27 60° 260° (W) 10:54:05 437.425
DELFI C3 28 Jun 10:49:31 10:53:28 73° 101° (E) 10:57:25 145.870
POLYITAN 1 28 Jun 10:59:37 11:00:49 11° 63° (ENE) 11:02:00 437.675
EO-88 28 Jun 11:03:08 11:06:47 71° 101° (ESE) 11:10:24 145.990 - 145.960
FO-29 28 Jun 11:05:03 11:10:43 40° 265° (W) 11:17:07 435.910
QB50P2 28 Jun 11:09:08 11:11:42 16° 66° (ENE) 11:14:16 145.880/145.840
AIST 2D 28 Jun 11:11:35 11:14:36 26° 72° (ENE) 11:17:37 435.315
LO-87 28 Jun 11:17:36 11:18:52 11° 92° (E) 11:20:06 145.935 - 145.965
ESTCUBE 1 28 Jun 11:29:44 11:30:54 11° 90° (E) 11:32:05 437.505/2401.250
EO-79 28 Jun 11:31:26 11:34:55 25° 69° (ENE) 11:38:25 145.935-145.965
PCSat 28 Jun 11:33:36 11:38:46 48° 112° (ESE) 11:43:58 145.827
TIGRISAT 28 Jun 11:40:12 11:43:16 18° 268° (W) 11:46:24 435.000
DUCHIFAT 1 28 Jun 11:41:35 11:45:05 26° 69° (ENE) 11:48:37 145.980
YUBILEINY 28 Jun 11:50:16 11:54:31 15° 284° (WNW) 11:58:46 435.215
NANOSAT C BR1 28 Jun 11:51:24 11:55:17 37° 72° (ENE) 11:59:14 145.865
POLYITAN 1 28 Jun 12:31:47 12:36:01 64° 259° (W) 12:40:17 437.675
ISS 28 Jun 12:37:28 12:38:35 11° 14° (NNE) 12:39:41 437.550
BUGSAT 1 28 Jun 12:38:38 12:42:20 33° 71° (ENE) 12:46:07 437.445
QB50P2 28 Jun 12:43:03 12:47:06 43° 261° (W) 12:51:12 145.880/145.840
AIST 2D 28 Jun 12:45:35 12:47:48 16° 266° (W) 12:50:02 435.315
SPROUT 28 Jun 12:49:02 12:52:20 21° 95° (E) 12:55:37 437.525
LO-87 28 Jun 12:49:02 12:52:27 38° 287° (WNW) 12:55:51 145.935 - 145.965
VELOX 1 28 Jun 12:52:01 12:55:24 21° 95° (E) 12:58:45 145.980
ESTCUBE 1 28 Jun 13:03:39 13:08:05 62° 286° (WNW) 13:12:30 437.505/2401.250
EO-79 28 Jun 13:07:01 13:10:34 25° 264° (W) 13:14:08 145.935-145.965
Tancredo 1 28 Jun 13:15:46 13:18:18 24° 29° (NNE) 13:20:50 437.200
DUCHIFAT 1 28 Jun 13:17:13 13:20:40 24° 265° (W) 13:24:09 145.980
PCSat 28 Jun 13:17:59 13:22:23 25° 310° (NW) 13:26:48 145.827
AO-7 28 Jun 13:25:48 13:27:20 11° 44° (NE) 13:28:51 .
Gurwin Techsat 1B 28 Jun 13:26:06 13:30:34 28° 67° (ENE) 13:35:04 435.225
NANOSAT C BR1 28 Jun 13:28:23 13:31:07 17° 267° (W) 13:33:53 145.865
JUGNU 28 Jun 13:33:10 13:35:14 12° 177° (S) 13:37:18 437.505
SO-50 28 Jun 13:37:41 13:41:59 41° 115° (ESE) 13:46:15 436.795
50 SAT 28 Jun 13:42:36 13:45:42 32° 98° (E) 13:48:47 437.505
Oscar 19 28 Jun 13:45:41 13:50:47 70° 74° (ENE) 13:55:55 437.125/150
ISS 28 Jun 14:12:39 14:15:47 39° 33° (NNE) 14:18:54 437.550
BUGSAT 1 28 Jun 14:14:51 14:17:45 18° 266° (W) 14:20:41 437.445
SPROUT 28 Jun 14:24:28 14:28:13 30° 290° (WNW) 14:31:58 437.525
VELOX 1 28 Jun 14:27:53 14:31:51 33° 290° (WNW) 14:35:49 145.980
ITAMSAT 1 28 Jun 14:32:43 14:35:41 15° 62° (ENE) 14:38:39 435.822/435.867
DX 1 28 Jun 14:36:30 14:40:53 83° 284° (WNW) 14:45:15 434.975-435.025
UKube-1 28 Jun 14:46:54 14:51:14 86° 99° (E) 14:55:34 .
Tancredo 1 28 Jun 14:51:08 14:53:55 32° 225° (SW) 14:56:40 437.200
Gurwin Techsat 1B 28 Jun 15:05:35 15:10:22 34° 263° (W) 15:15:11 435.225
AO-7 28 Jun 15:10:12 15:18:08 52° 65° (ENE) 15:26:08 .
50 SAT 28 Jun 15:16:39 15:18:10 13° 293° (WNW) 15:19:42 437.505
SO-50 28 Jun 15:19:00 15:22:35 22° 312° (NW) 15:26:08 436.795
JUGNU 28 Jun 15:22:02 15:23:20 11° 187° (S) 15:24:37 437.505
SRMSAT 28 Jun 15:25:25 15:26:24 10° 172° (S) 15:27:22 437.500
Oscar 19 28 Jun 15:28:25 15:30:34 13° 269° (W) 15:32:43 437.125/150
ITUPSAT 1 28 Jun 15:44:44 15:48:58 31° 97° (E) 15:53:11 437.325
ISS 28 Jun 15:49:35 15:52:05 20° 229° (SW) 15:54:35 437.550
BEESAT 28 Jun 15:52:18 15:56:45 38° 98° (E) 16:01:11 436.000
ITAMSAT 1 28 Jun 16:09:24 16:14:33 66° 258° (WSW) 16:19:46 435.822/435.867
MOZHAYETS 4 28 Jun 16:30:56 16:35:31 67° 101° (E) 16:40:01
AO-7 28 Jun 17:03:45 17:11:04 34° 262° (W) 17:18:29 .
SRMSAT 28 Jun 17:12:30 17:14:39 12° 182° (S) 17:16:47 437.500
CUBESAT XI-V 28 Jun 17:20:56 17:25:16 40° 98° (E) 17:29:36 437.345
ITUPSAT 1 28 Jun 17:22:43 17:26:38 26° 293° (WNW) 17:30:33 437.325
BEESAT 28 Jun 17:30:40 17:34:15 21° 294° (WNW) 17:37:49 436.000
NUDT-PHONESAT 28 Jun 17:38:17 17:39:29 11° 66° (ENE) 17:40:41 437.300
CUTE-I 28 Jun 17:38:21 17:42:17 21° 64° (ENE) 17:46:13 437.470
HO-68 28 Jun 17:40:08 17:41:20 10° 51° (NE) 17:42:31 435.675
KKS-1 28 Jun 17:40:19 17:44:35 41° 99° (E) 17:48:49 437.445
DOVE 4 28 Jun 17:43:24 17:47:22 45° 73° (ENE) 17:51:30 437.250
STARS 28 Jun 18:00:44 18:04:35 28° 97° (E) 18:08:25 437.465
XW-2F 28 Jun 18:02:15 18:05:34 28° 71° (ENE) 18:08:52 145.980 - 146.000
XW-2D 28 Jun 18:08:26 18:11:58 37° 73° (ENE) 18:15:31 145.860 - 145.880
MOZHAYETS 4 28 Jun 18:10:22 18:12:04 12° 297° (WNW) 18:13:45
XW-2B 28 Jun 18:17:23 18:21:03 46° 74° (ENE) 18:24:44 145.730 - 145.750
LilacSat-2 28 Jun 18:20:42 18:24:28 56° 75° (ENE) 18:28:16 437.200
XW-2C 28 Jun 18:32:52 18:36:42 77° 76° (ENE) 18:40:33 145.795 - 145.815
KAITUO 1B 28 Jun 18:38:29 18:42:14 68° 76° (ENE) 18:45:59 145.475/437.950
CUTE 1.7 + AOD 2 28 Jun 18:48:34 18:51:21 17° 67° (ENE) 18:54:06 437.475
CUBESAT XI-V 28 Jun 18:59:09 19:02:20 19° 293° (WNW) 19:05:30 437.345
XW-2A 28 Jun 19:06:29 19:08:35 15° 68° (ENE) 19:10:41 145.665 - 145.685
NUDT-PHONESAT 28 Jun 19:09:19 19:12:56 46° 261° (W) 19:16:34 437.300
AO-85 28 Jun 19:14:29 19:17:01 16° 111° (ESE) 19:19:30 145.980
CUTE-I 28 Jun 19:16:49 19:21:56 47° 260° (W) 19:27:06 437.470
KKS-1 28 Jun 19:17:49 19:20:47 18° 295° (WNW) 19:23:46 437.445
RS-15 28 Jun 19:19:50 19:28:49 25° 100° (E) 19:37:55 29.354- 29.394
STRAND 1 28 Jun 19:20:01 19:21:33 11° 90° (E) 19:23:05 437.568
HO-68 28 Jun 19:20:33 19:27:34 59° 69° (ENE) 19:34:37 435.675
DOVE 4 28 Jun 19:23:24 19:25:23 13° 269° (W) 19:27:24 437.250
CUBEBUG 2 28 Jun 19:34:13 19:38:15 30° 70° (ENE) 19:42:21 437.445
XW-2F 28 Jun 19:37:07 19:39:42 17° 266° (W) 19:42:17 145.980 - 146.000
STARS 28 Jun 19:37:11 19:40:46 24° 292° (WNW) 19:44:20 437.465
XW-2D 28 Jun 19:44:21 19:46:17 13° 268° (W) 19:48:13 145.860 - 145.880
ZACube-1 28 Jun 19:49:14 19:51:47 15° 65° (ENE) 19:54:21 437.345
XW-2B 28 Jun 19:54:32 19:55:28 11° 269° (W) 19:56:23 145.730 - 145.750
SEEDS 28 Jun 19:58:20 20:02:30 67° 76° (ENE) 20:06:40 437.485
UWE-3 28 Jun 20:00:23 20:04:32 34° 71° (ENE) 20:08:45 435.000/436.395/437.385
O/OREOS (USA 219) 28 Jun 20:09:21 20:09:56 10° 97° (E) 20:10:30 437.305
CUTE 1.7 + AOD 2 28 Jun 20:22:54 20:26:51 37° 262° (W) 20:30:49 437.475
PCSat 28 Jun 20:23:00 20:27:44 30° 52° (NE) 20:32:26 145.827
BEESAT 3 28 Jun 20:23:10 20:27:02 56° 118° (ESE) 20:30:59 437.485
XW-2A 28 Jun 20:38:10 20:41:05 26° 263° (W) 20:44:02 145.665 - 145.685
AAUSAT CUBESAT 2 28 Jun 20:38:42 20:42:50 90° 265° (W) 20:46:57 437.432
AO-73 28 Jun 20:45:55 20:50:20 53° 74° (ENE) 20:54:48 145.935
AO-85 28 Jun 20:53:17 20:57:06 39° 306° (NW) 21:00:49 145.980
YUBILEINY 28 Jun 20:55:17 21:01:43 23° 81° (E) 21:08:08 435.215
STRAND 1 28 Jun 20:56:05 21:01:15 76° 285° (WNW) 21:06:22 437.568
NO-84 28 Jun 21:08:44 21:12:29 88° 144° (SE) 21:16:35 435.350 FM
Oscar 11 28 Jun 21:08:57 21:13:16 73° 76° (ENE) 21:17:36 .
HO-68 28 Jun 21:10:01 21:15:39 25° 266° (W) 21:21:19 435.675
CUBEBUG 2 28 Jun 21:11:00 21:14:48 25° 266° (W) 21:18:43 437.445
ZACube-1 28 Jun 21:23:07 21:27:34 53° 261° (W) 21:32:04 437.345
RS-15 28 Jun 21:27:37 21:39:47 85° 300° (WNW) 21:52:16 29.354- 29.394
BEESAT 2 28 Jun 21:30:13 21:34:11 76° 302° (WNW) 21:38:13 435.950
DELFI C3 28 Jun 21:33:29 21:36:58 31° 72° (ENE) 21:40:27 145.870
UWE-3 28 Jun 21:37:27 21:41:01 22° 266° (W) 21:44:38 435.000/436.395/437.385
EO-88 28 Jun 21:39:45 21:42:43 23° 70° (ENE) 21:45:41 145.990 - 145.960
O/OREOS (USA 219) 28 Jun 21:44:11 21:48:42 67° 292° (WNW) 21:53:12 437.305
BEESAT 3 28 Jun 22:02:41 22:04:57 15° 315° (NW) 22:07:16 437.485
PCSat 28 Jun 22:06:11 22:11:10 38° 250° (WSW) 22:16:07 145.827
SO-50 28 Jun 22:10:18 22:14:09 26° 50° (NE) 22:17:59 436.795
FO-29 28 Jun 22:15:01 22:22:16 39° 95° (E) 22:29:15 435.910
PRISM 28 Jun 22:18:52 22:21:35 17° 94° (E) 22:24:19 437.425
AO-73 28 Jun 22:24:32 22:26:51 14° 269° (W) 22:29:09 145.935
UNISAT 6 28 Jun 22:38:19 22:42:28 32° 96° (E) 22:46:30 437.425
NO-84 28 Jun 22:47:51 22:50:36 18° 334° (NNW) 22:53:30 435.350 FM
YUBILEINY 28 Jun 22:48:50 22:57:35 70° 279° (W) 23:06:27 435.215
DELFI C3 28 Jun 23:09:17 23:11:48 16° 267° (W) 23:14:19 145.870
M-CUBED/EXP-1 PRIME 28 Jun 23:12:18 23:16:10 82° 290° (WNW) 23:20:20 437.505
EO-88 28 Jun 23:13:37 23:16:19 19° 265° (W) 23:19:02 145.990 - 145.960
LO-87 28 Jun 23:23:06 23:26:36 59° 75° (ENE) 23:30:08 145.935 - 145.965
TIGRISAT 28 Jun 23:31:19 23:35:56 72° 284° (WNW) 23:40:25 435.000
SPROUT 28 Jun 23:41:55 23:44:13 14° 65° (ENE) 23:46:31 437.525
RS-15 28 Jun 23:44:00 23:54:22 30° 327° (NNW) 00:04:50 29.354- 29.394
VELOX 1 28 Jun 23:48:33 23:51:16 16° 65° (ENE) 23:53:58 145.980
SO-50 28 Jun 23:50:33 23:54:36 33° 246° (WSW) 23:58:41 436.795
PRISM 28 Jun 23:53:12 23:56:57 34° 289° (WNW) 00:00:41 437.425
FO-29 28 Jun 23:59:52 00:07:13 45° 292° (WNW) 00:14:22 435.910
ESTCUBE 1 29 Jun 00:01:14 00:05:44 83° 258° (WSW) 00:10:15 437.505/2401.250
AIST 2D 29 Jun 00:10:35 00:13:52 38° 98° (E) 00:17:07 435.315
UNISAT 6 29 Jun 00:15:20 00:18:58 23° 292° (WNW) 00:22:32 437.425
POLYITAN 1 29 Jun 00:18:35 00:21:56 22° 95° (E) 00:25:15 437.675
QB50P2 29 Jun 00:29:15 00:33:07 32° 97° (E) 00:36:55 145.880/145.840
EO-79 29 Jun 00:52:08 00:56:21 55° 100° (E) 01:00:30 145.935-145.965
YUBILEINY 29 Jun 00:52:41 00:56:10 13° 301° (WNW) 00:59:40 435.215
DUCHIFAT 1 29 Jun 01:01:33 01:05:45 56° 100° (E) 01:09:53 145.980
NANOSAT C BR1 29 Jun 01:12:08 01:16:25 86° 106° (ESE) 01:20:39 145.865
SPROUT 29 Jun 01:15:34 01:19:40 47° 261° (W) 01:23:50 437.525
VELOX 1 29 Jun 01:23:10 01:27:20 43° 261° (W) 01:31:32 145.980
DX 1 29 Jun 01:30:13 01:34:30 70° 74° (ENE) 01:38:49 434.975-435.025
UKube-1 29 Jun 01:39:34 01:43:47 58° 74° (ENE) 01:48:01 .
50 SAT 29 Jun 01:45:11 01:48:22 40° 261° (W) 01:51:34 437.505
Gurwin Techsat 1B 29 Jun 01:45:35 01:47:22 12° 90° (E) 01:49:09 435.225
AIST 2D 29 Jun 01:45:38 01:46:41 11° 293° (WNW) 01:47:44 435.315
POLYITAN 1 29 Jun 01:54:00 01:57:41 28° 290° (WNW) 02:01:19 437.675
BUGSAT 1 29 Jun 01:56:20 02:00:35 70° 102° (ESE) 02:04:45 437.445
Oscar 19 29 Jun 01:59:10 02:03:28 27° 96° (E) 02:07:46 437.125/150
RS-15 29 Jun 02:04:51 02:12:47 19° 2° (N) 02:20:37 29.354- 29.394
QB50P2 29 Jun 02:05:32 02:08:39 20° 293° (WNW) 02:11:46 145.880/145.840
NO-84 29 Jun 02:07:27 02:09:05 12° 17° (NNE) 02:10:43 435.350 FM
EO-79 29 Jun 02:29:45 02:31:36 13° 296° (WNW) 02:33:25 145.935-145.965
DUCHIFAT 1 29 Jun 02:39:12 02:40:54 12° 296° (WNW) 02:42:35 145.980
ITUPSAT 1 29 Jun 02:49:58 02:54:12 32° 69° (ENE) 02:58:26 437.325
BEESAT 29 Jun 02:57:07 03:01:31 38° 70° (ENE) 03:05:57 436.000
AO-7 29 Jun 03:15:25 03:20:13 16° 91° (E) 03:24:57 .
UKube-1 29 Jun 03:19:04 03:20:09 11° 269° (W) 03:21:14 .
Gurwin Techsat 1B 29 Jun 03:22:31 03:27:52 78° 285° (WNW) 03:33:10 435.225
MOZHAYETS 4 29 Jun 03:31:00 03:35:30 53° 74° (ENE) 03:40:01
BUGSAT 1 29 Jun 03:35:04 03:35:18 10° 297° (WNW) 03:35:32 437.445
Oscar 19 29 Jun 03:38:13 03:42:47 33° 291° (WNW) 03:47:19 437.125/150
NO-84 29 Jun 03:43:41 03:47:45 36° 36° (NE) 03:51:46 435.350 FM
AO-85 29 Jun 03:46:25 03:48:03 12° 44° (NE) 03:49:44 145.980
RS-15 29 Jun 04:19:59 04:30:47 34° 37° (NE) 04:41:06 29.354- 29.394
CUBESAT XI-V 29 Jun 04:22:44 04:26:54 34° 71° (ENE) 04:31:02 437.345
ITAMSAT 1 29 Jun 04:23:41 04:28:47 49° 100° (E) 04:33:49 435.822/435.867
ITUPSAT 1 29 Jun 04:28:03 04:31:59 25° 264° (W) 04:35:58 437.325
BEESAT 29 Jun 04:35:49 04:39:23 21° 266° (W) 04:42:58 436.000
KKS-1 29 Jun 04:36:57 04:40:53 32° 70° (ENE) 04:44:50 437.445
BEESAT 3 29 Jun 04:41:39 04:44:49 22° 49° (NE) 04:47:56 437.485
STARS 29 Jun 04:56:12 04:59:33 22° 67° (ENE) 05:02:57 437.465
AO-7 29 Jun 05:05:31 05:13:57 88° 108° (ESE) 05:22:20 .
MOZHAYETS 4 29 Jun 05:10:33 05:12:56 14° 269° (W) 05:15:20
NO-84 29 Jun 05:21:23 05:25:18 32° 233° (SW) 05:29:06 435.350 FM
AO-85 29 Jun 05:24:43 05:28:53 79° 240° (WSW) 05:33:20 145.980
DOVE 4 29 Jun 05:43:40 05:46:57 17° 92° (E) 05:50:16 437.250
BEESAT 2 29 Jun 05:49:13 05:53:03 38° 54° (NE) 05:56:49 435.950
